Back to catalog

ATLAS 5 CENTAUR DEB

AliveHEO
NORAD 45473·DEBRIS·🇺🇸 United States

Launched Oct 17, 2018 from Cape Canaveral Space Force Station

Loading…

Next Passes (next 24 hours)

TLE

FreshSource: Space-Track

Epoch: Sep 14, 2026, 06:48 UTC

1 45473U 18079BV  26257.28391591 -.00000139  00000-0  00000-0 0  9992
2 45473  13.0671  62.1176 4525967 254.8375  52.2755  1.70639773 43239

Track ATLAS 5 CENTAUR DEB in real time with AllMySat

Download on the App Store